IRIDIUM 131 (43079 NORAD) Tracking and Keplerian Element Data

This shows tracking and keplerian element data for the satellite.

Feedback or suggestion? Click here.




ElementValue
Catalog43079
NameIRIDIUM 131
Epoch Orbit24921
Epoch Day269.47096683
Epoch Year2022
RAAN170.3818
Inclination86.4043
Eccentricity0.0002083
Argument of Perigee89.8158
Mean Anonmoly270.3277
Mean Motion14.34215566
Decay Rate1.89E-06
L11 43079U 17083K 22269.47096683 .00000189 00000+0 60584-4 0 9990
L22 43079 86.4043 170.3818 0002083 89.8158 270.3277 14.34215566249213

Live tracking and technical data element details for IRIDIUM 131 (NORAD 43079). IRIDIUM 131 can be tracked NOW for your location showing map with azimuth and elevation plus other details from your city location.

Track the satellite on the map from your city or location and see movement details for azimuth, elevation, latitude, longitude, range, height, and movement on the map or in text.







IsCatalogInMostPopularTable: catalog: 43079, numindb: 688
Update: records affected: 1



GetName: 43079 IRIDIUM 131

Hit Count: updated at: Wed, 05 Oct 2022 08:26:34 GMT